User: anonymous   Login
Location: Unspecified
(0.0000°N, 0.0000°E)
Time: 20:39:47
(UTC+00:00)
Language:

GONETS M 10 (M20) - Orbit

View from above orbital plane
View from above orbital plane
View from above satellite
View from above satellite

Ground track
Ground track

The orbit data is extracted from the following two-line orbital elements,

1 40063U 14036C   17172.72599058 +.00000010 +00000-0 +00000-0 0  9991
2 40063 082.5086 186.2467 0022911 097.8413 262.5270 12.42894599134684
Epoch (UTC): 21 June 2017 17:25:25
Eccentricity: 0.0022911
inclination: 82.5086°
perigee height: 1476 km
apogee height: 1512 km
right ascension of ascending node: 186.2467°
argument of perigee: 97.8413°
revolutions per day: 12.42894599
mean anomaly at epoch: 262.5270°
orbit number at epoch: 13468

The dashed part of the orbit path shows where the satellite is in the earth's shadow,  

DLR